User: anonymous   Login
Location: Dompnac
(44.5644°N, 4.1026°E)
Time: 16:48:15
(UTC+00:00)
Language:

Cosmos 2082 Rocket - Orbit

View from above orbital plane
View from above orbital plane
View from above satellite
View from above satellite

Ground track
Ground track

The orbit data is extracted from the following two-line orbital elements,

1 20625U 90046B   21213.05361889 -.00000208  00000-0 -83171-4 0  9999
2 20625  70.9974 228.4528 0015533 331.2180  28.8084 14.14673918610796
Epoch (UTC): 01 August 2021 01:17:12
Eccentricity: 0.0015533
inclination: 70.9974°
perigee height: 832 km
apogee height: 854 km
right ascension of ascending node: 228.4528°
argument of perigee: 331.2180°
revolutions per day: 14.14673918
mean anomaly at epoch: 28.8084°
orbit number at epoch: 61079

The dashed part of the orbit path shows where the satellite is in the earth's shadow,  

DLR